NOAA 16 DEB, 41295

Orbit data source: Space-Track

NOAA 16 DEB, 41295 is space debris in SSO originally from a launch on Thu, 21 Sep 2000 UTC launched from the Air Force Western Test Range (AFWTR). Debris objects in space refer to the collection of defunct objects orbiting the Earth. Examples of debris include non-operational satellites, rocket bodies, and fragments generated from explosions, collisions, or faulty payload assembly.

Loading next visibility...
Identifier
41295, 2000-055GX
Orbit
SSO
Country
Flag of USUS
Related business
Manufacturer
Unknown
Mission
Spacecraft
Bus & Motor
Unknown
Mass
Unknown
Launch date (UTC)
2000-09-21 (25 years ago)
Launch vehicle
Unknown
Launch site
Air Force Western Test Range (AFWTR)
Object type
Payload
Rocket body
Debris
Shape & HBR
Unknown shape, 0.1 m
Radar Cross Section
Small (<0.1 m²)

Expand to show TLE details & history
Last TLE update: 13 hours ago

TLE from 13 hours ago
0 NOAA 16 DEB
1 41295U 00055GX  25351.89012633  .00002930  00000-0  13841-2 0  9992
2 41295  98.6869  26.2266 0022146 357.1823   2.9226 14.20395476514199
Epoch: 2025-12-17T21:21Z
TLE epoch observation values (Epoch: 2025-12-17T21:21:46.914Z)
Latitude
-0°
Longitude
-20.97237°
Altitude
810.999 km
Speed
7.456 km/s
True Right ascension
01h 44m 54s
True Declination
0° 00' 00"
Sunlit
Object was in partial shadow at epoch
Visualization orbit readout
Latitude
Unknown
Longitude
Unknown
Altitude
Unknown
Speed
Unknown
Apparent Right ascension
Unknown
Apparent Declination
Unknown
Sunlit
N/A
Visualization observer readout
Local Sidereal Time
08:58:23
Azimuth
Unknown
Elevation
Unknown
Doppler factor
Unknown
Orbital elements
Apogee altitude
837.116 km
Perigee altitude
805.229 km
Semi-major axis
7,199.31 km
Eccentricity
0.00221
Inclination
98.6869°
RAAN
26.2266°
Arg. of periapsis
357.1823°
True anomaly
2.93558°
Mean anomaly
2.9226°
Eccentric anomaly
2.92908°
Mean motion
3.5531 °/min
Orbital period
101.32 mins
BSTAR
0.0013841
Loading maneuver chart data...
Computing Atmospheric mass density...
Loading historical data...
Loading historical data...
Loading historical data...
Loading historical data...
Loading historical data...
Loading historical data...
Loading historical data...

Documentation

Showing up to 5 results
|